Regional Weather Roundup
Issued by NWS Northern Indiana

Home | Current Version | Previous Version | Text Only | Print | Product List | Glossary On
Versions: 1 2 3 4 5 6 7 8 9 10 11 12 13 14 15 16 17 18 19 20 21 22 23 24 25 26 27 28 29 30 31 32 33 34 35 36 37 38 39 40 41 42 43 44 45 46 47 48 49 50
000
ASUS43 KIWX 262010
RWRIWX

KIWX WEATHER ROUNDUP
NATIONAL WEATHER SERVICE NORTHERN INDIANA
400 PM EDT THU MAY 26 2016

NOTE: "FAIR" INDICATES FEW OR NO CLOUDS BELOW 12,000 FEET WITH NO
SIGNIFICANT WEATHER AND/OR OBSTRUCTIONS TO VISIBILITY.

* THESE STATIONS ARE NOT UNDER NWS QUALITY CONTROL. THEY ALSO MAY NOT
  REPORT WEATHER SUCH AS PRECIPITATION OR FOG.

INZ001>027-262100-
NORTHERN INDIANA

CITY           SKY/WX    TMP DP  RH WIND       PRES   REMARKS
GARY*          PTSUNNY   82  70  65 SW12      29.90R
VALPARAISO     FAIR      80  61  52 SW15G23   29.91R
MICHIGAN CITY* FAIR      81  61  50 SW13G24   29.89R
LAPORTE*       FAIR      83  59  43 SW17G25   29.91R
KNOX*            N/A     79  52  38 S17       29.92R
SOUTH BEND     FAIR      84  61  45 SW14G21   29.90R
ELKHART*       FAIR      84  64  51 SW14      29.91S
GOSHEN         FAIR      81  58  45 SW16G23   29.92R
MONTICELLO*    FAIR      78  60  55 S12       29.92S
LOGANSPORT*    FAIR      79  63  57 S10       29.95R
ROCHESTER*     FAIR      81  68  65 S8        29.93F
WARSAW*        FAIR      79  61  53 S6        29.93S
ANGOLA*        SUNNY     82  79  89 VRB7      29.92S
FORT WAYNE     PTSUNNY   82  65  56 S9        29.94F
HUNTINGTON*    FAIR     N/A N/A N/A SW8       29.94R
PERU/GRISSOM   FAIR      78  66  65 S9        29.93S
MARION*        FAIR      77  62  59 SW7       29.96R

$$
INZ028>050-262100-
CENTRAL INDIANA

CITY           SKY/WX    TMP DP  RH WIND       PRES   REMARKS
LAFAYETTE      FAIR      77  63  61 S6        29.92F
KOKOMO*        FAIR      79  64  61 SW6       29.94S
MUNCIE*        FAIR      79  66  64 S10       29.94F
INDIANAPOLIS   CLOUDY    74  65  73 S8        29.96R

$$
MIZ043>046-050>051-056>058-064>065-071>073-077>080-262100-
SOUTHWEST LOWER MICHIGAN

CITY           SKY/WX    TMP DP  RH WIND       PRES   REMARKS
BATTLE CREEK   FAIR      80  65  59 SW8       29.91F
BENTON HARBOR  FAIR      84  62  47 S9        29.87S
COLDWATER*     FAIR      82  65  56 SW6       29.91F
HILLSDALE*     FAIR      82  59  46 W9        29.93F
HOLLAND        FAIR      81  69  67 W13       29.89F
GRAND RAPIDS   PTSUNNY   83  69  62 VRB7      29.89S
KALAMAZOO      FAIR      82  64  54 S8        29.89F
STURGIS*       FAIR      82  60  47 SW15G21   29.91R
THREE RIVERS*  FAIR      83  61  46 SW8G18    29.90S

$$
OHZ001>008-015>018-024>025-262100-
NORTHWEST OHIO

CITY           SKY/WX    TMP DP  RH WIND       PRES   REMARKS
WAUSEON*         N/A     84  84 100 SW9G16    29.92F HX 104
DEFIANCE       FAIR      84  63  49 SW10      29.92F
FINDLAY        PTSUNNY   82  64  54 SW15      29.94F
TOLEDO EXPRESS FAIR      85  63  47 SW7       29.91F
TOLEDO METCALF FAIR      85  62  46 SW14      29.92F
LIMA           FAIR      80  67  64 S9        29.96F

$$
AND FOR LAKE MICHIGAN COASTAL AND OPEN LAKE BUOY OBSERVATIONS

STATION/POSITION TEMP    WIND        PRES    VSBY  WAVE
                 AIR SEA DIR/SP/G                  HT/PER
                 (F)     (DEG/KT/KT) (MB)    (MI)  (FT/S)
CALUMET HARBOR    78     200/ 12/ 17 1011.3F
MICHIGAN CITY     79     190/ 18/ 20   N/A
BURNS HARBOR      78     210/ 15/ 21 1012.2S
SAINT JOSEPH      74     200/  4/  6 1012.2R
SOUTH LAKE BUOY   55 49  180/  8/ 10 1011.6R         1/ 3
4 MI NW BRIDGMAN  69 64  280/  6/  8   N/A           1
MICHIGAN CITY     64 60  280/  6/  8   N/A           1/ 2

$$
&&




USA.gov is the U.S. government's official web portal to all federal, state and local government web resources and services.